Probability
0 0 0 0 0 0 0 0 0 0 0 0 0 0 0 0 0 0 0 0 0 1 2 3 3 3 3 3 3 3 3 3 3 3 3 3 3 3 3 3 3 3 3 3 3 3 3 3 3
0 0 0 0 0 0 0 0 0 0 0 0 0 0 0 0 0 0 0 0 0 1 5 12 12 7 3 3 3 3 3 3 3 3 3 3 3 3 3 3 3 3 3 3 3 3 3 3 3
0 0 0 0 0 0 0 0 0 0 0 0 0 0 0 0 0 0 0 0 0 1 13 33 36 17 4 3 3 3 3 3 3 3 3 3 3 3 3 3 3 3 3 3 3 3 3 3 3
0 0 0 0 0 0 0 0 0 0 0 0 0 0 0 0 0 0 0 0 0 3 22 50 54 27 7 3 3 3 3 3 3 3 3 3 3 3 3 4 5 4 3 3 3 3 3 3 3
0 0 0 0 0 0 0 0 0 0 0 0 0 0 0 0 0 0 0 0 0 4 22 45 49 29 10 5 3 3 3 3 3 3 3 3 3 3 4 5 6 5 4 4 4 3 3 3 3
0 0 0 0 0 0 0 0 0 0 0 0 0 0 0 0 0 0 0 0 0 2 11 26 29 20 12 7 5 4 3 3 3 3 3 4 3 3 4 5 6 6 4 5 5 4 4 3 3
0 0 0 0 0 0 0 0 0 0 0 0 0 0 0 0 0 0 0 0 0 0 3 8 10 11 11 9 6 5 4 4 3 3 4 4 4 3 4 5 8 9 7 6 6 6 6 5 4
0 0 0 0 0 0 0 0 0 0 0 0 0 0 0 0 0 0 0 0 0 0 0 0 2 5 8 12 15 12 6 4 3 3 3 4 3 3 3 5 13 21 18 11 8 8 9 7 5
0 0 0 0 0 0 0 0 0 0 0 0 0 0 0 0 0 0 0 0 0 0 0 0 0 2 4 14 27 20 8 4 4 3 3 3 3 3 3 6 19 33 29 16 9 8 8 7 5
0 0 0 0 0 0 0 0 0 0 0 0 0 0 0 0 0 0 0 0 0 0 0 0 0 0 0 9 19 17 10 8 6 4 4 3 3 3 3 7 19 27 22 12 6 5 5 5 4
0 0 0 0 0 0 0 0 0 0 0 0 0 0 0 0 0 0 0 0 0 0 0 0 0 0 0 2 5 8 10 11 8 5 4 4 3 3 3 5 9 11 8 5 4 3 2 2 1
0 0 0 0 0 0 0 0 0 0 0 0 0 0 0 0 0 0 0 0 0 0 0 0 0 0 0 0 1 3 6 8 8 7 6 4 3 3 3 3 3 3 3 3 3 2 1 0 0
0 0 0 0 0 0 0 0 0 0 0 0 0 0 0 0 0 0 0 0 0 0 0 0 0 0 0 0 0 0 1 2 4 8 8 5 4 4 3 3 3 3 3 3 3 2 0 0 0
0 0 0 0 0 0 0 0 0 0 0 0 0 0 0 0 0 0 0 0 0 0 0 0 0 0 0 0 0 0 0 0 1 4 6 5 5 4 3 3 2 3 3 2 3 2 2 4 6
0 0 0 0 0 0 0 0 0 0 0 0 0 0 0 0 0 0 0 0 0 0 0 0 0 0 0 0 0 0 0 0 0 1 2 2 3 3 2 1 1 1 2 3 2 2 4 11 18
0 0 0 0 0 0 0 0 0 0 0 0 0 0 0 0 0 0 0 0 0 0 0 0 0 0 0 0 0 0 0 0 0 0 0 0 1 1 1 0 0 1 2 2 1 1 4 12 19
0 0 0 0 0 0 0 0 0 0 0 0 0 0 0 0 0 0 0 0 0 0 0 0 0 0 0 0 0 0 0 0 0 0 0 0 0 0 0 0 0 0 1 1 0 1 3 6 9
0 0 0 0 0 0 0 0 0 0 0 0 0 0 0 0 0 0 0 0 0 0 0 0 0 0 0 0 0 0 0 0 0 0 0 0 0 0 0 0 0 0 0 0 0 0 1 2 2
0 0 0 0 0 0 0 0 0 0 0 0 0 0 0 0 0 0 0 0 0 0 0 0 0 0 0 0 0 0 0 0 0 0 0 0 0 0 0 0 0 0 0 0 0 0 0 0 0
0 0 0 0 0 0 0 0 0 0 0 0 0 0 0 0 0 0 0 0 0 0 0 0 0 0 0 0 0 0 0 0 0 0 0 0 0 0 0 0 0 0 0 0 0 0 0 0 0
0 0 0 0 0 0 0 0 0 0 0 0 0 0 0 0 0 0 0 0 0 0 0 0 0 0 0 0 0 0 0 0 0 0 0 0 0 0 0 0 0 0 0 0 0 0 0 0 0
0 0 0 0 0 0 0 0 0 0 0 0 0 0 0 0 0 0 0 0 0 0 0 0 0 0 0 0 0 0 0 0 0 0 0 0 0 0 0 0 0 0 0 0 0 0 0 0 0
0 0 0 0 0 0 0 0 0 0 0 0 0 0 0 0 0 0 0 0 0 0 0 0 0 0 0 0 0 0 0 0 0 0 0 0 0 0 0 0 0 0 0 0 0 0 0 0 0
0 0 0 0 0 0 0 0 0 0 0 0 0 0 0 0 0 0 0 0 0 0 0 0 0 0 0 0 0 0 0 0 0 0 0 0 0 0 0 0 0 0 0 0 0 0 0 0 0
0 0 0 0 0 0 0 0 0 0 0 0 0 0 0 0 0 0 0 0 0 0 0 0 0 0 0 0 0 0 0 0 0 0 0 0 0 0 0 0 0 0 0 0 0 0 0 0 0
0 0 0 0 0 0 0 0 0 0 0 0 0 0 0 0 0 0 0 0 0 0 0 0 0 0 0 0 0 0 0 0 0 0 0 0 0 0 0 0 0 0 0 0 0 0 0 0 0
0 0 0 0 0 0 0 0 0 0 0 0 0 0 0 0 0 0 0 0 0 0 0 0 0 0 0 0 0 0 0 0 0 0 0 0 0 0 0 0 0 0 0 0 0 0 0 0 0
0 0 0 0 0 0 0 0 0 0 0 0 0 0 0 0 0 0 0 0 0 0 0 0 0 0 0 0 0 0 0 0 0 0 0 0 0 0 0 0 0 0 0 0 0 0 0 0 0
0 0 0 0 0 0 0 0 0 0 0 0 0 0 0 0 0 0 0 0 0 0 0 0 0 0 0 0 0 0 0 0 0 0 0 0 0 0 0 0 0 0 0 0 0 0 0 0 0
0 0 0 0 0 0 0 0 0 0 0 0 0 0 0 0 0 0 0 0 0 0 0 0 0 0 0 0 0 0 0 0 0 0 0 0 0 0 0 0 0 0 0 0 0 0 0 0 0
Wind_Speed
11 12 8 2 3 5 9 1 5 6 5 8 6 4 5 6 7 5 3 4 5 9 12 10 11 9 8 8 7 6 5 4 3 2 2 1 2 2 2 3 4 4 5 5 4 4 4 5 4
9 10 5 3 4 6 4 5 3 7 7 3 0 2 4 6 7 8 5 4 3 7 11 11 12 9 8 7 7 7 6 5 4 3 3 2 1 1 2 4 4 5 4 4 4 4 4 4 4
9 10 4 4 5 4 6 8 8 5 3 1 2 1 3 5 5 5 5 4 2 6 8 12 15 10 8 8 8 7 7 6 5 5 5 3 2 1 3 3 3 3 2 1 2 2 3 3 4
6 4 4 4 11 4 5 6 6 5 2 2 4 4 5 5 5 6 4 3 3 6 10 13 14 11 9 8 8 8 8 7 7 7 5 5 4 2 2 2 1 2 2 1 1 2 3 3 4
3 3 5 7 10 2 3 6 3 5 4 2 2 6 4 5 8 7 5 2 2 3 11 13 13 11 9 9 9 9 9 8 9 8 5 6 6 3 2 1 1 2 1 1 2 3 3 4 4
3 3 5 6 4 3 3 6 3 5 5 4 2 5 5 6 9 6 3 0 1 4 7 11 12 11 9 8 8 8 9 9 9 8 5 4 5 5 4 4 4 3 2 1 2 3 4 5 6
3 4 6 8 5 4 5 7 6 8 9 8 7 7 4 8 6 4 4 2 5 6 3 4 8 9 9 9 9 9 8 8 8 7 6 5 4 5 6 4 4 5 4 2 1 3 4 5 6
3 4 7 4 3 4 7 4 3 5 7 5 2 4 3 5 4 2 3 2 3 2 2 3 2 7 9 9 12 10 8 7 7 7 6 5 4 6 6 5 5 6 5 4 3 3 4 5 5
3 3 5 5 6 6 7 6 7 6 5 6 3 3 3 7 4 1 1 3 5 5 3 2 4 4 1 4 10 10 8 7 6 5 8 6 4 6 8 11 9 8 7 5 5 4 4 5 6
3 3 4 5 5 6 8 8 8 6 7 8 9 11 9 3 1 2 4 5 2 4 5 5 4 5 4 3 4 5 7 7 6 6 8 6 5 6 4 7 10 8 7 7 9 9 8 6 4
4 4 6 5 4 5 7 8 8 8 8 8 9 10 10 8 6 4 4 4 5 7 7 6 5 4 4 3 1 1 1 3 6 7 5 6 5 3 1 3 5 6 7 6 8 9 6 6 6
4 7 7 5 5 5 7 7 8 8 6 7 8 7 7 8 9 9 7 7 7 7 7 6 6 4 4 4 2 2 2 1 2 2 0 1 1 1 2 2 3 3 3 5 5 4 6 7 8
7 6 6 4 4 5 6 7 7 5 6 9 10 12 14 14 12 10 9 8 7 6 6 5 4 4 4 3 3 2 3 2 1 1 1 2 2 2 3 2 3 3 2 2 3 4 5 6 6
6 8 9 9 6 2 5 7 4 7 10 13 16 17 17 18 17 14 12 10 9 8 7 6 7 7 5 4 3 3 3 1 1 1 2 3 2 2 2 2 3 3 3 3 3 4 5 5 5
4 9 10 4 2 3 3 6 9 9 13 15 15 15 17 17 18 18 16 14 13 11 10 7 6 7 8 7 5 4 4 4 2 2 2 3 3 4 3 3 3 3 4 4 4 5 4 3 2
8 7 4 6 2 2 3 4 9 9 14 13 12 11 13 15 17 17 19 18 17 16 14 12 8 7 8 8 6 4 5 5 3 3 3 4 5 4 3 3 3 4 3 3 3 3 3 3 2
3 6 7 4 4 4 4 3 8 9 13 12 11 11 12 14 17 17 18 18 19 19 18 16 14 10 7 7 6 5 5 5 4 4 3 3 5 5 3 2 3 4 3 2 3 3 3 3 3
9 9 8 8 4 6 4 2 8 10 13 11 10 11 12 14 15 14 16 16 16 17 17 17 17 15 13 8 6 5 5 4 4 4 4 4 4 6 4 3 4 3 2 2 2 3 3 2 3
7 8 10 7 4 4 5 1 9 10 11 10 9 10 11 11 11 12 13 13 14 16 17 16 16 16 14 10 8 6 5 5 4 4 4 4 5 5 3 2 3 1 1 2 2 2 2 2 1
8 9 7 6 11 11 8 1 11 11 11 9 9 10 10 10 11 12 12 12 12 12 13 13 13 13 13 11 10 8 7 5 4 4 3 4 5 5 3 2 2 2 0 2 2 1 0 1 1
9 5 6 9 12 10 6 3 11 10 10 10 9 8 9 11 11 11 10 10 8 8 9 11 10 11 11 13 11 10 8 6 4 4 3 4 6 5 3 3 2 2 1 1 2 1 0 1 1
7 9 10 11 8 5 6 1 10 9 9 9 8 7 8 8 9 9 9 9 8 7 7 8 9 10 11 12 13 15 12 9 8 6 5 6 6 5 4 2 2 2 1 1 2 1 1 1 1
6 11 16 14 8 6 6 5 7 9 7 8 6 7 7 8 8 9 9 8 8 8 7 8 9 9 10 12 13 14 13 11 9 8 7 5 5 5 4 2 2 2 1 1 1 1 1 1 0
8 13 16 6 1 3 2 4 4 3 6 6 6 7 8 8 9 9 9 8 8 9 9 9 9 8 9 10 12 14 17 17 14 11 8 5 3 3 4 3 2 2 1 1 1 2 1 0 0
9 8 6 5 1 2 5 3 6 5 6 6 7 8 9 10 11 11 12 13 13 13 12 11 10 9 8 9 10 13 16 18 16 12 7 6 3 2 4 4 2 1 1 2 2 2 2 1 0
7 5 4 4 5 9 8 2 7 5 4 6 9 10 11 12 12 13 13 13 13 13 13 12 11 9 7 8 10 12 15 14 13 12 7 3 3 3 2 2 2 2 2 2 2 1 1 1 0
6 5 3 4 8 7 2 7 3 3 4 11 12 13 13 13 13 14 14 14 15 15 14 14 13 10 8 8 10 12 14 16 18 17 9 2 1 3 6 5 4 3 2 2 2 1 2 2 0
2 3 4 4 6 7 7 2 5 6 11 13 14 14 14 14 14 14 14 15 16 16 15 15 14 11 9 9 10 13 15 17 18 17 11 4 3 5 3 4 4 3 2 2 1 0 1 2 2
5 2 3 4 5 5 6 3 9 10 11 12 13 14 15 16 16 14 14 15 16 17 16 15 14 13 11 11 11 13 14 16 17 16 12 4 1 4 5 3 2 3 3 2 2 1 1 1 2
1 3 4 4 6 5 7 4 9 12 10 12 15 18 19 18 15 16 17 17 17 18 17 15 13 12 12 12 13 14 15 15 16 16 14 7 1 1 4 4 2 1 0 1 2 3 3 3 2
Wind_Direction
291 269 260 267 255 236 253 82 62 75 47 44 32 351 339 38 39 82 162 84 100 111 126 155 166 175 184 192 199 200 199 203 205 213 236 265 255 234 229 228 223 218 219 227 240 254 255 246 241
292 294 296 246 254 260 232 103 84 65 58 28 253 297 323 80 77 109 127 78 75 115 138 157 163 174 185 194 201 206 209 218 223 239 248 245 330 316 280 264 235 222 224 238 251 263 265 252 234
270 275 276 258 257 297 43 60 55 38 75 330 313 105 34 53 69 88 91 114 191 126 116 136 153 168 185 198 204 209 216 221 231 253 261 228 232 321 308 283 241 215 212 238 262 274 269 258 238
278 270 239 250 277 356 22 56 44 325 150 157 323 317 107 75 63 79 98 150 217 148 124 134 151 164 184 201 210 213 222 223 230 243 254 237 229 252 347 359 114 123 124 176 239 257 260 258 238
247 265 253 260 267 330 20 47 17 295 293 134 50 315 73 92 92 83 83 43 314 72 115 135 150 166 186 203 214 219 225 229 236 238 256 244 219 229 278 308 150 134 135 228 249 257 256 250 239
264 264 275 277 302 50 33 52 328 318 328 355 41 330 79 119 103 87 78 352 44 52 103 138 156 169 188 207 220 227 231 233 240 240 248 238 218 230 249 261 217 186 183 216 268 267 264 256 245
276 281 280 298 333 344 45 24 10 1 341 26 20 332 78 85 93 127 115 44 52 43 39 130 159 174 189 201 212 221 229 236 242 238 238 253 256 249 252 263 231 207 197 194 248 288 283 266 250
316 286 271 274 351 21 54 9 21 8 331 337 4 322 46 109 111 91 86 64 63 60 22 4 249 180 179 194 205 203 211 229 242 237 230 237 250 246 243 242 228 212 196 189 206 251 273 273 255
279 263 291 359 15 6 23 3 345 331 292 295 280 272 68 95 67 25 270 214 196 186 168 116 340 2 21 201 181 188 199 214 230 232 225 223 234 234 225 223 212 186 184 197 214 228 250 266 249
228 276 319 25 1 351 346 333 319 315 323 325 348 11 43 70 122 270 275 276 216 125 75 40 18 9 351 345 127 185 191 190 202 222 208 203 220 238 241 171 171 180 200 216 228 237 241 239 241
239 268 321 340 358 358 326 320 326 330 326 343 14 9 1 351 341 316 303 321 60 65 60 35 28 7 357 343 353 308 220 171 193 223 213 187 206 230 192 155 173 199 213 222 234 230 227 223 224
269 290 301 317 352 332 311 315 315 312 320 18 33 13 359 359 1 353 6 23 55 68 66 37 10 22 16 354 349 318 305 232 212 209 230 162 195 227 251 225 215 209 203 205 221 212 217 222 227
277 278 298 313 298 296 313 305 298 342 25 35 31 27 23 19 9 0 15 20 26 51 77 64 8 12 25 2 326 306 293 304 299 173 186 233 225 228 239 231 232 240 257 238 208 228 242 246 244
319 326 301 285 288 16 338 313 326 19 41 46 50 45 35 27 18 12 11 15 11 20 38 39 19 11 1 332 321 319 330 349 312 299 239 242 231 239 243 248 244 239 247 258 257 242 236 239 232
291 282 275 246 104 68 330 10 46 43 55 56 56 53 44 36 29 23 18 15 11 7 11 14 16 7 343 334 343 344 326 308 306 314 298 284 244 227 231 236 248 235 229 233 244 265 276 273 258
247 257 262 120 111 102 313 31 52 57 66 59 53 53 50 40 34 28 24 20 15 9 4 0 0 356 339 332 338 336 325 328 336 323 315 309 301 270 233 229 249 257 246 233 240 245 266 274 268
293 322 356 47 101 37 357 36 66 63 72 63 51 44 47 42 34 29 26 22 19 13 7 1 355 348 335 324 320 310 300 312 315 308 302 301 307 304 279 242 248 264 260 260 267 256 235 246 251
351 338 339 322 44 21 345 30 88 65 70 63 52 41 39 43 35 28 25 22 20 15 9 4 359 351 342 329 321 317 311 305 298 298 300 299 298 293 283 269 253 252 268 267 267 271 260 234 233
318 306 298 305 73 2 308 340 102 81 68 61 51 46 35 37 35 28 25 20 19 15 8 2 360 354 348 339 330 318 307 301 290 271 271 287 286 286 283 289 305 318 315 289 268 252 267 267 249
298 295 315 348 351 330 287 122 101 84 74 65 55 47 35 25 25 24 22 17 17 13 2 356 357 351 347 338 326 309 298 287 288 297 306 307 298 289 289 293 295 288 348 337 319 328 301 276 209
323 4 350 317 316 279 252 145 114 97 85 75 61 48 39 25 18 15 14 9 5 4 354 351 347 349 346 340 332 326 315 303 292 280 266 261 270 273 270 293 304 315 4 312 298 339 345 277 277
315 356 321 302 309 305 315 247 141 123 94 72 58 41 32 24 14 7 3 358 352 346 338 338 343 347 348 346 340 333 322 309 292 273 244 223 229 250 250 252 286 296 290 277 266 235 117 68 353
306 307 285 272 265 275 257 248 161 140 93 67 49 36 25 18 8 360 353 346 337 331 332 339 342 347 348 346 340 332 324 314 306 301 287 247 215 221 221 216 271 279 280 299 316 25 67 74 71
311 297 286 258 175 271 275 201 111 84 77 60 42 28 17 10 2 352 342 336 329 331 337 338 335 337 341 340 337 331 324 319 311 304 299 285 249 218 202 191 230 266 273 34 38 32 21 327 356
354 341 350 5 257 207 353 301 97 109 92 62 36 21 13 6 357 347 344 342 338 335 333 328 322 323 332 339 335 331 323 318 308 298 296 298 285 246 204 175 183 235 179 105 63 34 3 351 22
325 348 20 324 298 310 302 78 121 136 102 50 32 19 9 1 352 346 343 338 333 329 328 326 323 321 335 340 336 331 325 319 311 301 291 298 328 339 358 107 97 58 55 65 65 30 310 296 285
351 10 350 281 276 271 255 105 184 208 42 28 19 12 3 354 348 346 344 341 338 336 335 334 329 327 336 341 341 333 328 322 315 306 289 268 85 49 18 17 30 33 40 38 38 33 335 330 270
28 321 317 312 317 304 301 11 98 44 24 16 10 4 354 349 349 349 346 345 344 340 336 334 331 332 339 352 347 333 326 321 318 311 286 252 146 109 68 4 1 359 356 0 10 340 341 352 344
348 321 338 314 278 281 297 50 80 50 28 12 3 356 350 350 350 349 349 348 344 338 333 330 332 338 346 349 341 331 325 323 321 318 311 289 176 134 131 106 4 342 355 6 15 352 349 333 305
345 352 356 316 299 313 304 279 78 43 27 11 359 354 351 349 349 352 349 345 341 337 333 334 338 343 348 346 340 334 329 328 325 323 322 318 317 118 123 125 147 172 147 39 46 44 40 33 24